Regional Weather Roundup
Issued by NWS

Home | Current Version | Previous Version | Text Only | Print | Product List | Glossary Off
Versions: 1 2 3 4 5 6 7 8 9 10 11 12 13 14 15 16 17 18 19 20 21 22 23 24 25 26 27 28 29 30 31 32 33 34 35 36 37 38 39 40 41 42 43 44 45 46 47 48 49 50

000
ASUS43 KLOT 311204
RWRIL

ILLINOIS REGIONAL WEATHER ROUNDUP
NATIONAL WEATHER SERVICE CHICAGO/ROMEOVILLE IL
700 AM CDT WED AUG 31 2016

NOTE: "FAIR" INDICATES FEW OR NO CLOUDS BELOW 12,000 FEET WITH NO
SIGNIFICANT WEATHER AND/OR OBSTRUCTIONS TO VISIBILITY.

* THESE STATIONS ARE NOT UNDER NWS QUALITY CONTROL. THEY ALSO MAY NOT
  REPORT WEATHER SUCH AS PRECIPITATION OR FOG.

ILZ001-002-007-009-015-016-024-311300-
NORTHWEST ILLINOIS

CITY           SKY/WX    TMP DP  RH WIND       PRES   REMARKS
MOLINE         MOCLDY    70  63  78 N3        30.09R
6HR MIN TEMP:  69; 6HR MAX TEMP:  75;

STERLING*      MOCLDY    67  65  93 N7        30.08S
SAVANNA*       PTCLDY    65  63  93 N6        30.10S
$$

ILZ003-004-008-010-011-017-018-311300-
NORTH CENTRAL ILLINOIS

CITY           SKY/WX    TMP DP  RH WIND       PRES   REMARKS
ROCKFORD       MOCLDY    68  64  87 NE9       30.11R
6HR MIN TEMP:  68; 6HR MAX TEMP:  71;

ROCHELLE*      CLOUDY    67  65  96 NE8       30.09R
$$

ILZ005-006-012>014-019>023-311300-
NORTHEAST ILLINOIS

CITY           SKY/WX    TMP DP  RH WIND       PRES   REMARKS
CHICAGO-OHARE  MOCLDY    68  63  84 N8        30.06R
6HR MIN TEMP:  68; 6HR MAX TEMP:  72;

CHICAGO-MIDWAY CLOUDY    71  65  81 N10       30.05R
6HR MIN TEMP:  71; 6HR MAX TEMP:  75;

AURORA         PTCLDY    69  65  86 NE8       30.07R
6HR MIN TEMP:  66; 6HR MAX TEMP:  70;

LANSING*       CLOUDY    72  71  96 N6        30.05R
JOLIET*        PTCLDY    71  69  92 NE9       30.06R
WAUKEGAN       PTCLDY    64  60  87 NW3       30.07R
6HR MIN TEMP:  64; 6HR MAX TEMP:  71;

DUPAGE AIRPORT MOCLDY    67  63  87 N10       30.07R
6HR MIN TEMP:  67; 6HR MAX TEMP:  70;

KANKAKEE*      CLOUDY    70  68  96 CALM      30.05R
WHEELING       PTCLDY    67  62  84 N6        30.07R
6HR MIN TEMP:  67; 6HR MAX TEMP:  72;

MORRIS*        PTCLDY    68  67  96 CALM      30.05R
ROMEOVILLE*    CLOUDY    69  69  99 NE9       30.06R
NORTHERLY ISL    N/A     71  65  81 NW14        N/A
$$

LMZ740>746-311300-
SOUTHERN LAKE MICHIGAN

STATION/POSITION SKY/WX   TEMP    WIND        PRES    VSBY  WAVE
                          AIR SEA DIR/SP/G                  HT/PER
                          (F)     (DEG/KT/KT) (MB)    (MI)  (FT/S)
SOUTHERN BUOY              72 75   20/ 17/ 19 1015.5          3/ 4
WILMETTE HARBOR            71 72   10/ 14/ 17   N/A           4/ 4
HARRISON CRIB              73     350/ 20/ 22   N/A
BURNHAM HARBOR             71     330/  9/ 16   N/A
CALUMET HARBOR             71     320/  7/ 19 1016.6R
BURNS HARBOR               74     350/  6/  9 1017.3R
MICHIGAN CITY              72     310/  8/  9   N/A
MICHIGAN CITY 6N           73 69  330/  8/ 10   N/A           1/ 3
ST. JOSEPH                 74 74  320/  6/  8 1015.8S         1/ 3
$$

ILZ025>027-034>036-040-047-049-050-058-095>099-311300-
WEST-CENTRAL ILLINOIS

CITY           SKY/WX    TMP DP  RH WIND       PRES   REMARKS
QUINCY         FOG       70  70 100 W3        30.08R VSB 1/4
GALESBURG*     CLOUDY    68  67  98 N3        30.09R
MACOMB*        CLOUDY    70  69  98 NW3       30.10R FOG
JACKSONVILLE*  FOG       69  68  97 W3        30.07R VSB 1/2
PITTSFIELD*    CLOUDY    70  70 100 CALM      30.08S FOG
$$

ILZ028>032-037-038-041>044-048-051>054-059>061-311300-
CENTRAL ILLINOIS

CITY           SKY/WX    TMP DP  RH WIND       PRES   REMARKS
PONTIAC        CLOUDY    70  70 100 CALM      30.07R FOG
BLOOMINGTON    CLOUDY    70  68  93 N6        30.07R
DECATUR        CLEAR     71  70  96 CALM      30.06R FOG
PEORIA         MOCLDY    70  70 100 N3        30.07R
6HR MIN TEMP:  70; 6HR MAX TEMP:  73;

LACON*         MOCLDY    69  68  97 CALM      30.05S
LINCOLN*       MOCLDY    71  71 100 CALM      30.06R FOG
SPRINGFIELD    PTCLDY    70  69  97 CALM      30.06S FOG
6HR MIN TEMP:  69; 6HR MAX TEMP:  71;

TAYLORVILLE    FOG       69  69 100 CALM      30.06R VSB 1/4
6HR MIN TEMP:  67; 6HR MAX TEMP:  69;

$$

ILZ033-039-045-046-055>057-062-063-311300-
EAST-CENTRAL ILLINOIS

CITY           SKY/WX    TMP DP  RH WIND       PRES   REMARKS
CHAMPAIGN      FOG       70  69  97 NW3       30.06R VSB 1/4
RANTOUL*       CLOUDY    71  69  93 N3        30.05S
MATTOON        FOG       70  69  97 W5        30.04S VSB<1/4
PARIS*         FOG       68  68 100 CALM      30.05S VSB 1/4
$$

ILZ079-100>102-311300-
SOUTHWEST ILLINOIS

CITY           SKY/WX    TMP DP  RH WIND       PRES   REMARKS
BELLEVILLE     CLOUDY    72  72 100 NW1       30.05S FOG
CAHOKIA*       PTCLDY    70  68  93 CALM      30.06S FOG
SPARTA*        FOG       71  70  99 N3        30.06S VSB 3/4
$$

ILZ064>066-069>071-074>076-080>082-084>086-088>090-092>094-311300-
SOUTH-CENTRAL ILLINOIS

CITY           SKY/WX    TMP DP  RH WIND       PRES   REMARKS
CARBONDALE     FOG       71  70  96 N6        30.04S VSB 1/4
6HR MIN TEMP:  69; 6HR MAX TEMP:  71;

EFFINGHAM*     FOG       70  70 100 W3        30.07R VSB 1/4
MARION         FOG       73  72  94 N6        30.05S VSB 1
MT. VERNON     CLOUDY    72  66  83 CALM      30.06R
CENTRALIA*     CLOUDY    73  73 100 NW6       30.05S FOG
SALEM*         FOG       72  70  95 NW5       30.06R VSB<1/4
METROPOLIS*    CLEAR     72  71  97 CALM      30.03R FOG
$$

ILZ067-068-072-073-078-083-087-091-311300-
SOUTHEAST ILLINOIS

CITY           SKY/WX    TMP DP  RH WIND       PRES   REMARKS
LAWRENCEVILLE  PTCLDY    72  72 100 NW6       30.04R FOG
FLORA*         FOG       71  70  98 NW6       30.05R VSB 1/2
FAIRFIELD*       N/A     70  70  99 CALM      30.04S
HARRISBURG*    CLEAR     72  71  96 CALM      30.04R
ROBINSON*      FOG       67  67 100 CALM      30.05R VSB 3/4
CARMI*         PTCLDY    70  70 100 CALM      30.03S FOG
$$

ABBREVIATIONS USED IN REMARKS
   TC - TEMPERATURE IN CELSIUS
  WCI - WIND CHILL INDEX
   HX - HEAT INDEX
  VSB - VISIBILITY
$$




USA.gov is the U.S. government's official web portal to all federal, state and local government web resources and services.